C613LL CYXU-CYXU

Flight info

Callsign C613LL
Flight time 0h 7m
Altitude 2000
Route CYXU/15
Aircraft C152

Departure

Time 2026-04-22 02:52
Airport London International Airport (CYXU)

Arrival

Time 2026-04-22 03:00
Airport London International Airport (CYXU)
Time Latitude Longitude Altitude Speed Heading
2026-04-22 02:39 43.02985 -81.14974 897 ft 0 kts 225°
2026-04-22 02:44 43.02986 -81.14988 897 ft 7 kts 324°
2026-04-22 02:44 43.03028 -81.14958 897 ft 6 kts 19°
2026-04-22 02:45 43.03065 -81.14941 897 ft 9 kts 326°
2026-04-22 02:45 43.03135 -81.15009 897 ft 17 kts 318°
2026-04-22 02:45 43.03230 -81.15124 899 ft 19 kts 319°
2026-04-22 02:45 43.03338 -81.15252 900 ft 23 kts 319°
2026-04-22 02:46 43.03463 -81.15400 901 ft 24 kts 319°
2026-04-22 02:46 43.03602 -81.15568 898 ft 31 kts 319°
2026-04-22 02:46 43.03769 -81.15772 898 ft 33 kts 318°
2026-04-22 02:46 43.03928 -81.15962 900 ft 28 kts 319°
2026-04-22 02:47 43.04031 -81.16014 905 ft 12 kts
2026-04-22 02:47 43.04052 -81.16012 906 ft 0 kts
2026-04-22 02:47 43.04059 -81.16011 906 ft 0 kts
2026-04-22 02:49 43.04063 -81.16010 906 ft 7 kts
2026-04-22 02:50 43.04140 -81.15935 907 ft 16 kts 70°
2026-04-22 02:50 43.04137 -81.15897 906 ft 0 kts 135°
2026-04-22 02:51 43.03989 -81.15717 903 ft 54 kts 138°
2026-04-22 02:51 43.03652 -81.15328 982 ft 71 kts 138°
2026-04-22 02:51 43.03274 -81.14875 1142 ft 72 kts 138°
2026-04-22 02:51 43.02889 -81.14431 1314 ft 74 kts 140°
2026-04-22 02:52 43.02497 -81.13951 1470 ft 78 kts 140°
2026-04-22 02:52 43.02086 -81.13425 1571 ft 81 kts 143°
2026-04-22 02:52 43.01702 -81.12871 1736 ft 81 kts 141°
2026-04-22 02:52 43.01336 -81.12257 1884 ft 85 kts 144°
2026-04-22 02:53 43.00952 -81.11568 1950 ft 96 kts 140°
2026-04-22 02:53 43.00556 -81.10793 1996 ft 103 kts 131°
2026-04-22 02:53 43.00214 -81.09926 2063 ft 106 kts 113°
2026-04-22 02:53 43.00364 -81.08918 2085 ft 112 kts 49°
2026-04-22 02:54 43.00919 -81.08242 2118 ft 106 kts 25°
2026-04-22 02:54 43.01538 -81.07741 2203 ft 101 kts 17°
2026-04-22 02:54 43.02125 -81.07758 2213 ft 80 kts 312°
2026-04-22 02:54 43.02621 -81.08136 2263 ft 85 kts 320°
2026-04-22 02:55 43.03166 -81.08490 2308 ft 88 kts 321°
2026-04-22 02:55 43.03722 -81.08851 2352 ft 89 kts 322°
2026-04-22 02:55 43.04274 -81.09238 2367 ft 90 kts 319°
2026-04-22 02:55 43.04829 -81.09632 2394 ft 90 kts 320°
2026-04-22 02:56 43.05383 -81.10057 2398 ft 91 kts 317°
2026-04-22 02:56 43.05916 -81.10511 2419 ft 90 kts 314°
2026-04-22 02:56 43.06427 -81.11011 2421 ft 90 kts 311°
2026-04-22 02:56 43.06912 -81.11546 2436 ft 88 kts 309°
2026-04-22 02:57 43.07312 -81.12164 2391 ft 85 kts 293°
2026-04-22 02:57 43.07536 -81.12889 2363 ft 81 kts 275°
2026-04-22 02:57 43.07533 -81.13650 2302 ft 79 kts 262°
2026-04-22 02:57 43.07390 -81.14380 2236 ft 81 kts 250°
2026-04-22 02:58 43.07146 -81.15075 2178 ft 81 kts 243°
2026-04-22 02:58 43.06840 -81.15710 2116 ft 82 kts 239°
2026-04-22 02:58 43.06500 -81.16314 2078 ft 79 kts 234°
2026-04-22 02:58 43.06061 -81.16790 2014 ft 84 kts 213°
2026-04-22 02:59 43.05418 -81.16855 1692 ft 98 kts 181°
2026-04-22 02:59 43.04766 -81.16602 1363 ft 95 kts 148°
2026-04-22 02:59 43.04355 -81.16165 1121 ft 65 kts 136°
2026-04-22 02:59 43.04027 -81.15770 942 ft 57 kts 134°
2026-04-22 03:00 43.03764 -81.15448 909 ft 43 kts 137°
2026-04-22 03:00 43.03584 -81.15233 905 ft 39 kts 138°
2026-04-22 03:00 43.03291 -81.14895 955 ft 63 kts 140°
2026-04-22 03:00 43.02943 -81.14522 1093 ft 65 kts 140°
2026-04-22 03:01 43.02576 -81.14111 1243 ft 71 kts 137°
2026-04-22 03:01 43.02204 -81.13636 1338 ft 74 kts 136°
2026-04-22 03:01 43.01852 -81.13136 1403 ft 73 kts 133°
2026-04-22 03:01 43.01787 -81.12453 1422 ft 85 kts 66°
2026-04-22 03:02 43.02231 -81.11899 1489 ft 91 kts 37°
2026-04-22 03:02 43.02772 -81.11437 1595 ft 91 kts 18°
2026-04-22 03:02 43.03368 -81.11496 1715 ft 84 kts 319°
2026-04-22 03:02 43.03834 -81.12003 1757 ft 88 kts 311°
2026-04-22 03:03 43.04317 -81.12528 1792 ft 89 kts 311°
2026-04-22 03:03 43.04759 -81.13105 1792 ft 89 kts 304°
2026-04-22 03:03 43.05163 -81.13735 1838 ft 87 kts 298°
2026-04-22 03:03 43.05496 -81.14390 1870 ft 81 kts 287°
2026-04-22 03:04 43.05631 -81.15148 1765 ft 86 kts 269°
2026-04-22 03:04 43.05554 -81.15948 1716 ft 84 kts 252°
2026-04-22 03:04 43.05273 -81.16579 1604 ft 78 kts 210°
2026-04-22 03:04 43.04783 -81.16529 1285 ft 66 kts 161°
2026-04-22 03:05 43.04457 -81.16265 1071 ft 48 kts 137°
2026-04-22 03:05 43.04212 -81.15986 922 ft 38 kts 137°
2026-04-22 03:05 43.04042 -81.15783 903 ft 33 kts 141°
2026-04-22 03:05 43.03881 -81.15592 899 ft 32 kts 138°
2026-04-22 03:06 43.03711 -81.15389 901 ft 31 kts 137°
2026-04-22 03:06 43.03577 -81.15297 904 ft 16 kts 200°
2026-04-22 03:06 43.03496 -81.15402 901 ft 13 kts 211°
2026-04-22 03:06 43.03468 -81.15402 901 ft 0 kts 154°
2026-04-22 03:07 43.03443 -81.15417 901 ft 14 kts 200°
2026-04-22 03:07 43.03336 -81.15422 901 ft 16 kts 176°